STARLINK-36539, 67446

Orbit data source: Space-Track

STARLINK-36539, 67446 is a payload satellite owned by SpaceX/Seattle (US) in LEO that was launched on Wed, 14 Jan 2026 UTC via an FALCON 9 launch vehicle from the Air Force Eastern Test Range (AFETR). Payload-class satellites include a variety of spacecraft equipped with specific instruments for various scientific and technological missions. These include communications satellites like Starlink; space stations such as the ISS; scientific satellites like the Hubble; Earth observation satellites from companies like Planet Labs, Umbra, and HawkEye 360; GPS; miniature CubeSats for education and research; and military/defense satellites.

Loading next visibility...
Identifier
67446, 2026-008B
Orbit
LEO
Country
Flag of USUS
Related business
Manufacturer
SpaceX/Seattle
Mission
Operational spacecraft
Bus & Motor
STARLINK V2MO, Unknown motor
Mass
575 kg wet, ~530 kg dry
Launch date (UTC)
2026-01-14 (2 months ago)
Launch vehicle
FALCON 9
Launch site
Air Force Eastern Test Range (AFETR)
Object type
Payload
Rocket body
Debris
Shape & HBR
Unknown shape, 17.7 m
Radar Cross Section
RCS unknown

Expand to show TLE details & history
Last TLE update: 16 hours ago

TLE from 16 hours ago
0 STARLINK-36539
1 67446U 26008B   26062.52237171  .00041123  00000-0  14940-2 0  9998
2 67446  42.9965 240.5188 0003357 292.5807  67.4689 15.27610427  8624
Epoch: 2026-03-03T12:32Z
TLE epoch observation values (Epoch: 2026-03-03T12:32:12.915Z)
Latitude
-0.00005°
Longitude
-108.83528°
Altitude
481.851 km
Speed
7.627 km/s
True Right ascension
16h 02m 04s
True Declination
0° 00' 00"
Sunlit
Object was in daylight at epoch
Visualization orbit readout
Latitude
Unknown
Longitude
Unknown
Altitude
Unknown
Speed
Unknown
Apparent Right ascension
Unknown
Apparent Declination
Unknown
Sunlit
N/A
Visualization observer readout
Local Sidereal Time
08:42:55
Azimuth
Unknown
Elevation
Unknown
Doppler factor
Unknown
Orbital elements
Apogee altitude
487.208 km
Perigee altitude
482.6 km
Semi-major axis
6,863.041 km
Eccentricity
0.00034
Inclination
42.9965°
RAAN
240.5188°
Arg. of periapsis
292.5807°
True anomaly
67.50444°
Mean anomaly
67.4689°
Eccentric anomaly
67.48667°
Mean motion
3.81741 °/min
Orbital period
94.3 mins
BSTAR
0.001494
Loading maneuver chart data...
Computing Atmospheric mass density...
Loading historical data...
Loading historical data...
Loading historical data...
Loading historical data...
Loading historical data...
Loading historical data...
Loading historical data...

Documentation

Showing up to 5 results
|